This is the latest recevied weather packets stored in our database for station/object VK4HIT-13. If no packets are shown the sender has not sent any weather packets the latest 1 day(s).
| Time | Temp. | Humidity | Pressure | Rain* | Wind** | Luminosity | Snow |
|---|---|---|---|---|---|---|---|
| 1778086768 | 17.78° C | 92% | 1016.1 hPa | 0 mm | - | - | - |
| 1778086468 | 17.22° C | 92% | 1016.1 hPa | 0 mm | - | - | - |
| 1778086168 | 17.22° C | 91% | 1015.9 hPa | 0 mm | - | - | - |
| 1778085868 | 17.22° C | 91% | 1016 hPa | 0 mm | - | - | - |
| 1778085568 | 17.78° C | 90% | 1016.2 hPa | 0 mm | - | - | - |
| 1778085268 | 17.78° C | 90% | 1016.3 hPa | 0 mm | - | - | - |
| 1778084968 | 17.78° C | 91% | 1016.3 hPa | 0 mm | - | - | - |
| 1778084068 | 17.78° C | 91% | 1016.5 hPa | 0 mm | - | - | - |
| 1778083468 | 17.78° C | 90% | 1016.4 hPa | 0 mm | - | - | - |
| 1778083168 | 17.78° C | 90% | 1016.4 hPa | 0 mm | - | - | - |
| 1778082568 | 17.78° C | 91% | 1016.4 hPa | 0 mm | - | - | - |
| 1778082268 | 17.78° C | 91% | 1016.4 hPa | 0 mm | - | - | - |
| 1778081668 | 17.78° C | 90% | 1016.3 hPa | 0 mm | - | - | - |
| 1778081368 | 18.33° C | 90% | 1016.3 hPa | 0 mm | - | - | - |
| 1778080468 | 17.78° C | 90% | 1016.5 hPa | 0 mm | - | - | - |
| 1778079568 | 17.78° C | 90% | 1016.8 hPa | 0 mm | - | - | - |
| 1778079268 | 17.78° C | 90% | 1016.9 hPa | 0 mm | - | - | - |
| 1778078968 | 17.78° C | 90% | 1016.8 hPa | 0 mm | - | - | - |
| 1778076868 | 18.33° C | 89% | 1016.8 hPa | 0 mm | - | - | - |
| 1778059468 | 20° C | 85% | 1017.4 hPa | 0 mm | - | - | - |
| 1778053769 | 21.67° C | 79% | 1016.2 hPa | 0 mm | - | - | - |
| 1778053169 | 21.67° C | 78% | 1016.2 hPa | 0 mm | - | - | - |
| 1778052869 | 21.67° C | 77% | 1016.1 hPa | 0 mm | - | - | - |
| 1778052569 | 21.67° C | 77% | 1016.2 hPa | 0 mm | - | - | - |
| 1778052269 | 22.22° C | 76% | 1016 hPa | 0 mm | - | - | - |
* Rain latest hour (hover to see other rain measurements)
** Current wind speed in m/s (hover to see current wind gust speed)